Weather Roundup
Issued by NWS Chicago, IL

Home | Current Version | Previous Version | Graphics & Text | Print | Product List | Glossary On
Versions: 1 2 3 4 5 6 7 8 9 10 11 12 13 14 15 16 17 18 19 20 21 22 23 24 25 26 27 28 29 30 31 32 33 34 35 36 37 38 39 40 41 42 43 44 45 46 47 48 49 50
000
NZUS59 KLOT 011513
HRRLOT

CHICAGO AREA WEATHER ROUNDUP
NATIONAL WEATHER SERVICE CHICAGO/ROMEOVILLE IL
1000 AM CDT SAT OCT 01 2016

NOTE: "FAIR" INDICATES FEW OR NO CLOUDS BELOW 12,000 FEET WITH NO
SIGNIFICANT WEATHER AND/OR OBSTRUCTIONS TO VISIBILITY.

* THESE STATIONS ARE NOT UNDER NWS QUALITY CONTROL. THEY ALSO MAY NOT
  REPORT WEATHER SUCH AS PRECIPITATION OR FOG.

ILZ005-006-012>014-019>023-011600-
NORTHEAST ILLINOIS

CITY           SKY/WX    TMP DP  RH WIND       PRES   REMARKS
OHARE          LGT RAIN  61  59  93 NE9       30.02S FOG
MIDWAY         LGT RAIN  59  56  89 S3        30.02S
AURORA         CLOUDY    61  58  90 N6        30.03S
LANSING*       LGT RAIN  58  58 100 NW6       30.01S
JOLIET*        HVY RAIN  60  59  96 N5        30.03R
WAUKEGAN       CLOUDY    61  58  90 NE10G18   30.03R
DUPAGE AIRPORT LGT RAIN  61  58  90 N8        30.02S
WHEELING       CLOUDY    61  59  93 E8        30.03S
KANKAKEE*      RAIN      58  58  97 CALM      30.03R
MORRIS*        RAIN      60  58  95 CALM      30.03R
LEWIS AIRPORT* RAIN      58  58 100 N5        30.03S
NORTHERLY ISL    N/A     60  58  92 NE8         N/A
$$

WIZ051-052-058>065-066-070>072-011600-
SOUTHEAST WISCONSIN

CITY           SKY/WX    TMP DP  RH WIND       PRES   REMARKS
MILWAUKEE      CLOUDY    60  57  89 NE8       30.07R
KENOSHA*       CLOUDY    61  58  90 NE10      30.05R
RACINE*        LGT RAIN  61  57  87 NE12      30.06S
BURLINGTON     CLOUDY    58  57  98 NE7       30.06R FOG
WEST BEND      CLOUDY    68  68 100 NE8       30.08R
$$

INZ001>003-010>013-019-020-011600-
NORTHWEST INDIANA

CITY           SKY/WX    TMP DP  RH WIND       PRES   REMARKS
GARY*          CLOUDY    63  61  94 NE3       30.02R
MICHIGAN CITY* NOT AVBL
RENSSELAER*    NOT AVBL
VALPARAISO     CLOUDY    62  57  83 NE3       30.01R
$$

LMZ740>746-011600-
SOUTHERN LAKE MICHIGAN

STATION/POSITION TIME  SKY/WX   TEMP WIND        PRES    VSBY
                                AIR  DIR/SP/G
                 (UTC)          (F)  (DEG/KT/KT) (MB)    (MI)
HARRISON CRIB    1440            62   60/ 14/ 15   N/A
BURNHAM HARBOR   1500            61   50/  6/ 15   N/A
CALUMET HARBOR   1442            60   40/  4/  7 1015.9S
BURNS HARBOR     1502            61   50/ 10/ 11 1016.6
MICHIGAN CITY    1440            59   20/ 17/ 18   N/A
$$

ABBREVIATIONS USED IN REMARKS
   TC - TEMPERATURE IN CELSIUS
  WCI - WIND CHILL INDEX
   HX - HEAT INDEX
  VSB - VISIBILITY
$$



USA.gov is the U.S. government's official web portal to all federal, state and local government web resources and services.